Miscellaneous Local Product
Issued by NWS North Platte, NE

Home | Current Version | Previous Version | Text Only | Print | Product List | Glossary On
Versions: 1 2 3 4 5 6 7 8 9 10 11 12 13 14 15 16 17 18 19 20 21 22 23 24 25 26 27 28 29 30 31 32 33 34 35 36 37 38 39 40 41 42 43 44 45 46 47 48 49 50
704
AXUS43 KLBF 172010
MISLBF


WESTERN AND NORTH CENTRAL NEBRASKA HOURLY WEATHER ROUNDUP
NATIONAL WEATHER SERVICE NORTH PLATTE NE
300 PM CDT SUN SEP 17 2017

NOTE: "FAIR" INDICATES FEW OR NO CLOUDS BELOW 12,000 FEET WITH NO
SIGNIFICANT WEATHER AND/OR OBSTRUCTIONS TO VISIBILITY.

NOTE: STATIONS NOT REPORTING VARIABLES SUCH AS SKY/WEATHER OR
PRESSURE ARE PROVIDED BY RAWS AND APRS NETWORKS AND ARE NOT UNDER
NATIONAL WEATHER SERVICE QUALITY CONTROL.

...OBSERVATIONS IN AND NEAR THE EASTERN PANHANDLE OF NEBRASKA...

CITY           SKY/WX    TMP DP  RH WIND       PRES   REMARKS
GORDON         FAIR      65  44  47 S21G29    30.07F
CHADRON        SUNNY     71  44  37 S26G40    30.01F
ALLIANCE       SUNNY     67  45  45 S24G36    30.09F
SIDNEY         SUNNY     69  44  40 S20G30    30.12F
CRESCENT LAKE    N/A     66  45  47 S13G23      N/A
$$

...OBSERVATIONS IN NORTHERN NEBRASKA AND FAR SOUTHERN SOUTH DAKOTA...

CITY           SKY/WX    TMP DP  RH WIND       PRES   REMARKS
WINNER         CLOUDY    63  48  58 S13       30.14F
VALENTINE      PTSUNNY   56  47  71 SE10      30.15F
THEDFORD       MOSUNNY   63  47  54 S15       30.15F
AINSWORTH      CLOUDY    58  46  63 S10       30.16F
O`NEILL        CLOUDY    63  47  56 SE7       30.17F
ORD            MOSUNNY   62  43  49 S7        30.18F
BROKEN BOW     SUNNY     63  47  55 E8        30.16F
VALENTINE NWR    N/A     56  44  64 S13         N/A
HALSEY           N/A     62  44  52 SE8G16      N/A
BUTTE            N/A     58  47  66 SE9         N/A
CHAMBERS         N/A     63  45  51 E3          N/A
EWING            N/A     62  49  62 CALM        N/A
$$

...OBSERVATIONS IN SOUTHWEST NEBRASKA AND FAR NORTHEAST COLORADO...

CITY           SKY/WX    TMP DP  RH WIND       PRES   REMARKS
WRAY           FAIR      72  43  35 SE18G25   30.12F
HOLYOKE        FAIR      73  43  33 SE14G22   30.12F
IMPERIAL       SUNNY     72  40  31 S15G22    30.12F
OGALLALA       SUNNY     71  40  31 SE13G18   30.12F
NORTH PLATTE   SUNNY     68  46  45 E10G17    30.14F
MCCOOK         SUNNY     71  43  36 SE16G22   30.13F
LEXINGTON      SUNNY     68  44  42 E10       30.16F
STAPLETON        N/A     66  47  50 CALM        N/A
GOTHENBURG       N/A     64  42  45 SE7         N/A
CALLAWAY         N/A     67  50  53 SE6         N/A
$$

...OBSERVATIONS IN CENTRAL LINCOLN COUNTY AREA...

CITY           SKY/WX    TMP DP  RH WIND       PRES   REMARKS
N.P. AIRPORT   SUNNY     68  46  45 E10G17    30.14F
N.P. DOWNTOWN    N/A     66  48  52 MISG        N/A
N.P. SOUTHEAST   N/A     67  48  49 E3G12       N/A
N.P. HILLCREST   N/A     66  47  50 SE8G15      N/A
$$

...SOME OBSERVATIONS FROM AROUND THE REGION...

CITY           SKY/WX    TMP DP  RH WIND       PRES   REMARKS
DENVER         PTSUNNY   72  44  36 S8        30.07F
LIMON          PTSUNNY   65  49  56 S20G29    30.15F
ASPEN          CLOUDY    58  38  47 SE12G26   30.21S
LARAMIE        CLOUDY    64  28  25 CALM      30.11F
CASPER         CLOUDY    67  27  22 SW16G28   30.03F
CHEYENNE       MOSUNNY   68  45  43 S16G24    30.11F
SCOTTSBLUFF    SUNNY     73  48  41 S21G32    30.04F
GRAND ISLAND   SUNNY     66  46  48 NE12G17   30.17F
OMAHA          PTSUNNY   68  48  48 NE3       30.17F
SIOUX FALLS    MOSUNNY   64  49  57 S6        30.17F
PIERRE         MOSUNNY   63  43  48 S12       30.10F
RAPID CITY     SUNNY     63  46  55 S14       30.02F
BISMARCK       MOSUNNY   60  43  53 SW8G18    30.08F
KANSAS CITY    CLOUDY    73  65  75 E6        30.12F
HILL CITY      CLOUDY    70  47  43 E9        30.15F
WICHITA        CLOUDY    75  70  84 SE9       30.07F
DODGE CITY     CLOUDY    63  55  75 SE6       30.16R
OKLAHOMA CITY  PTSUNNY   75  69  81 NE10      30.03F
DALLAS         PTSUNNY   94  67  41 S9        29.97F HX  97
AMARILLO       PTSUNNY   81  61  50 SE15G21   30.09F
$$




USA.gov is the U.S. government's official web portal to all federal, state and local government web resources and services.